Toronto, Ontario

1:01 PM EDT on April 25, 2017 (GMT -0400)
Toronto-City Centre

Weather History for CYTZ - July, 2013

Change the Weather History Date:

Wednesday, July 10, 2013

  Actual Average Record
Temperature  
Mean Temperature 79 °F -  
Max Temperature 87 °F 77 °F 87 °F (2013)
Min Temperature 69 °F 61 °F 51 °F (2014)
Cooling Degree Days 14    
Growing Degree Days 29 (Base 50)    
Moisture  
Dew Point 69 °F    
Average Humidity 83    
Maximum Humidity 100    
Minimum Humidity 45    
Precipitation  
Precipitation 0.02 in 0.09 in - ()
Sea Level Pressure  
Sea Level Pressure 29.78 in    
Wind  
Wind Speed 8 mph ()    
Max Wind Speed 21 mph    
Max Gust Speed 29 mph    
Visibility 6.9 miles    
Events Rain    
Averages and records for this station are not official NWS values.
T = Trace of Precipitation, MM = Missing Value Source: Averaged Metar Reports

Daily Weather History Graph

Daily Weather History Graph

Search for Another Location

Airport or City:

Trip Planner

Search our weather history database for the weather conditions in past years. The results will help you decide how hot, cold, wet, or windy it might be!

Date:

Astronomy

Jul. 10, 2013 Rise Set
Actual Time 5:46 AM EDT 8:59 PM EDT
Civil Twilight 5:10 AM EDT 9:34 PM EDT
Nautical Twilight 4:25 AM EDT 10:19 PM EDT
Astronomical Twilight 3:30 AM EDT 11:14 PM EDT
Moon 8:11 AM EDT (7/10) 10:01 PM EDT (7/10)
Length of Visible Light 16h 23m
Length of Day
15h 13m
Waxing Crescent, 5% of the Moon is Illuminated
Jul 10
Waxing Crescent
Jul 15
First Quarter
Jul 22
Full
Jul 29
Last Quarter
Aug 6
New

Hourly Weather History & Observations

Time (EDT) Temp. Heat Index Dew Point Humidity Pressure Visibility Wind Dir Wind Speed Gust Speed Precip Events Conditions
12:00 AM 71.6 °F - 69.8 °F 94% 29.88 in 3.0 mi Calm Calm - N/A   Scattered Clouds
12:07 AM 71.6 °F - 69.8 °F 94% 29.88 in 3.0 mi Calm Calm - N/A   Mostly Cloudy
12:25 AM 71.6 °F - 71.6 °F 100% 29.88 in 2.5 mi Variable 2.3 mph - N/A   Mostly Cloudy
1:00 AM 71.6 °F - 71.6 °F 100% 29.86 in 2.5 mi Variable 2.3 mph - N/A   Overcast
1:11 AM 71.6 °F - 71.6 °F 100% 29.85 in 2.5 mi Variable 2.3 mph - N/A   Overcast
1:44 AM 71.6 °F - 71.6 °F 100% 29.83 in 1.8 mi Variable 2.3 mph - N/A   Overcast
2:00 AM 72 °F - 71 °F 94% 29.83 in 2 mi SE 3.5 mph - -   Mist
2:00 AM 71.6 °F - 71.6 °F 100% 29.83 in 1.8 mi SE 3.5 mph - N/A   Overcast
2:08 AM 71.6 °F - 69.8 °F 94% 29.83 in 2.0 mi South 3.5 mph - N/A   Mostly Cloudy
2:20 AM 71.6 °F - 69.8 °F 94% 29.83 in 2.0 mi South 5.8 mph - N/A   Mostly Cloudy
2:24 AM 71.6 °F - 69.8 °F 94% 29.83 in 2.2 mi South 6.9 mph - N/A   Scattered Clouds
2:40 AM 71.6 °F - 69.8 °F 94% 29.83 in 3.0 mi South 8.1 mph - N/A   Mostly Cloudy
2:56 AM 71.6 °F - 69.8 °F 94% 29.82 in 4.0 mi South 8.1 mph - N/A   Overcast
3:00 AM 71.6 °F - 69.8 °F 94% 29.82 in 4.0 mi South 8.1 mph - N/A   Overcast
3:32 AM 71.6 °F - 69.8 °F 94% 29.81 in 3.0 mi South 6.9 mph - N/A Rain Light Rain
3:45 AM 71.6 °F - 69.8 °F 94% 29.80 in 3.0 mi South 8.1 mph - N/A   Overcast
4:00 AM 71.6 °F - 69.8 °F 94% 29.81 in 3.0 mi South 8.1 mph - N/A   Overcast
5:00 AM 71.6 °F - 69.8 °F 94% 29.79 in 3.0 mi SSW 10.4 mph - N/A   Overcast
5:32 AM 71.6 °F - 69.8 °F 94% 29.78 in 6.0 mi SSW 11.5 mph - N/A   Overcast
6:00 AM 73.4 °F - 69.8 °F 88% 29.78 in 8.0 mi SSW 11.5 mph - N/A   Overcast
7:00 AM 73.4 °F - 69.8 °F 88% 29.77 in 9.0 mi SSW 11.5 mph - N/A   Mostly Cloudy
7:06 AM 73.4 °F - 69.8 °F 88% 29.77 in 9.0 mi SSW 11.5 mph - N/A   Scattered Clouds
7:28 AM 73.4 °F - 69.8 °F 88% 29.77 in 9.0 mi SSW 11.5 mph - N/A   Mostly Cloudy
8:00 AM 73 °F - 71 °F 89% 29.77 in 9 mi SSW 12.7 mph - -   Clear
8:00 AM 73.4 °F - 69.8 °F 88% 29.77 in 9.0 mi SSW 12.7 mph - N/A   Mostly Cloudy
8:08 AM 73.4 °F - 69.8 °F 88% 29.76 in 9.0 mi SSW 12.7 mph - N/A   Mostly Cloudy
8:33 AM 73.4 °F - 69.8 °F 88% 29.77 in 9.0 mi SSW 15.0 mph - N/A   Mostly Cloudy
8:56 AM 73.4 °F - 71.6 °F 94% 29.77 in 9.0 mi SSW 12.7 mph - N/A   Mostly Cloudy
9:00 AM 73.4 °F - 69.8 °F 88% 29.77 in 9.0 mi SSW 12.7 mph - N/A   Mostly Cloudy
9:04 AM 73.4 °F - 69.8 °F 88% 29.77 in 9.0 mi SSW 13.8 mph - N/A   Mostly Cloudy
10:00 AM 73.4 °F - 69.8 °F 88% 29.76 in 9.0 mi SSW 16.1 mph - N/A   Overcast
10:07 AM 73.4 °F - 69.8 °F 88% 29.76 in 9.0 mi SSW 16.1 mph - N/A   Overcast
10:11 AM 73.4 °F - 69.8 °F 88% 29.76 in 9.0 mi SSW 16.1 mph - N/A   Overcast
10:18 AM 73.4 °F - 69.8 °F 88% 29.76 in 9.0 mi SSW 15.0 mph - N/A   Overcast
10:19 AM 73.4 °F - 69.8 °F 88% 29.76 in 9.0 mi SSW 15.0 mph - N/A   Overcast
10:41 AM 75.2 °F - 71.6 °F 89% 29.75 in 9.0 mi SSW 13.8 mph - N/A   Overcast
11:00 AM 75.2 °F - 71.6 °F 89% 29.76 in 9.0 mi SSW 15.0 mph - N/A   Mostly Cloudy
12:00 PM 77.0 °F - 71.6 °F 83% 29.75 in 9.0 mi SSW 12.7 mph - N/A   Mostly Cloudy
1:00 PM 77.0 °F - 71.6 °F 83% 29.73 in 9.0 mi SSW 11.5 mph 18.4 mph N/A   Mostly Cloudy
2:00 PM 78 °F - 71 °F 74% 29.72 in 10 mi SSW 15.0 mph - -  
2:00 PM 77.0 °F - 71.6 °F 83% 29.72 in 9.0 mi SSW 16.1 mph - N/A   Mostly Cloudy
3:00 PM 78.8 °F - 69.8 °F 74% 29.71 in 9.0 mi SW 11.5 mph - N/A   Mostly Cloudy
4:00 PM 87.8 °F 90.4 °F 66.2 °F 49% 29.69 in 9.0 mi West 18.4 mph - N/A   Scattered Clouds
5:00 PM 86.0 °F 86.6 °F 62.6 °F 45% 29.69 in 9.0 mi West 18.4 mph - N/A   Scattered Clouds
5:52 PM 84.2 °F 86.6 °F 66.2 °F 55% 29.71 in 9.0 mi West 11.5 mph 18.4 mph N/A Rain Light Rain
6:00 PM 84.2 °F 86.6 °F 66.2 °F 55% 29.70 in 9.0 mi West 12.7 mph 19.6 mph N/A Rain Light Rain
6:01 PM 84.2 °F 86.6 °F 66.2 °F 55% 29.70 in 9.0 mi West 12.7 mph 19.6 mph N/A   Mostly Cloudy
7:00 PM 77.0 °F - 69.8 °F 78% 29.71 in 9.0 mi WSW 8.1 mph - N/A   Mostly Cloudy
8:00 PM 80 °F - 67 °F 55% 29.74 in 10 mi NNW 10.4 mph - -  
8:00 PM 80.6 °F 82.7 °F 66.2 °F 61% 29.73 in 9.0 mi NNW 11.5 mph - N/A   Scattered Clouds
9:00 PM 75.2 °F - 62.6 °F 65% 29.78 in 9.0 mi NNW 15.0 mph 24.2 mph N/A   Mostly Cloudy
10:00 PM 73.4 °F - 55.4 °F 53% 29.83 in 9.0 mi NW 9.2 mph 24.2 mph N/A   Overcast
10:06 PM 73.4 °F - 55.4 °F 53% 29.83 in 9.0 mi WNW 20.7 mph 28.8 mph N/A   Overcast
11:00 PM 69.8 °F - 55.4 °F 60% 29.85 in 9.0 mi WNW 18.4 mph - N/A   Mostly Cloudy